User: anonymous   Login
Location: Owatonna
(44.0840°N, 93.2260°W)
Time: 20:02:26
(UTC-05:00)
Language:

Cosmos 1500 Rocket - Orbit

View from above orbital plane
View from above orbital plane
View from above satellite
View from above satellite

Ground track
Ground track

The orbit data is extracted from the following two-line orbital elements,

1 14373U 83099B   14297.84945184  .00000930  00000-0  11064-3 0  8067
2 14373 082.5421 067.3949 0020993 171.1949 350.0846 14.83191216677603
Epoch (UTC): 24 October 2014 20:23:12
Eccentricity: 0.0020993
inclination: 82.5421°
perigee height: 604 km
apogee height: 634 km
right ascension of ascending node: 67.3949°
argument of perigee: 171.1949°
revolutions per day: 14.83191216
mean anomaly at epoch: 350.0846°
orbit number at epoch: 67760

The dashed part of the orbit path shows where the satellite is in the earth's shadow,  

DLR